NEWPRT Weather Reports


Display with metric or nautical units.
time (UTC)temp
F
wind
direction
speed
MPH
gust
MPH
rain 1hr
in
rain 24hr
in
rain mn
in
humidity
%
barometer
mb
20260903060020 0 152 0.0 12.0 0.02 0.05 0.05 63
20260903055457 0 147 1.0 12.0 0.02 0.05 0.05 64
20260903054934 0 154 1.0 7.0 0.03 0.05 0.05 64
20260903054411 0 168 1.0 9.0 0.03 0.05 0.05 64
20260903053848 0 179 2.0 9.0 0.03 0.05 0.05 62
20260903053325 0 166 2.0 6.0 0.03 0.05 0.05 63
20260903052802 0 119 1.0 8.0 0.03 0.05 0.05 63
20260903052239 0 39 4.0 8.0 0.03 0.05 0.05 61
20260903051716 0 123 1.0 8.0 0.03 0.05 0.05 63
20260903051153 0 238 2.0 7.0 0.03 0.05 0.05 61
20260903050630 0 26 2.0 10.0 0.03 0.05 0.05 59
20260903050108 0 207 2.0 10.0 0.01 0.05 0.05 62
20260903045544 0 162 3.0 10.0 0.01 0.04 0.04 60
20260903045021 0 193 3.0 6.0 0.00 0.02 0.02 59
20260903044458 0 140 3.0 8.0 0.00 0.02 0.02 58
20260903043935 0 141 3.0 8.0 0.00 0.02 0.02 58
20260903043412 0 147 3.0 8.0 0.00 0.02 0.02 58
20260903042849 0 166 3.0 8.0 0.00 0.02 0.02 58
20260903042326 0 63 1.0 7.0 0.01 0.02 0.02 59
20260903041803 0 170 2.0 7.0 0.01 0.02 0.02 58
20260903041240 0 121 2.0 7.0 0.01 0.02 0.02 60
20260903040717 0 130 2.0 7.0 0.01 0.02 0.02 58
20260903040154 0 158 2.0 7.0 0.01 0.02 0.02 58
20260903035630 0 103 2.0 8.0 0.01 0.02 0.02 59
20260903035107 0 333 1.0 8.0 0.02 0.02 0.02 60
20260903034545 0 347 2.0 8.0 0.02 0.02 0.02 69
20260903034022 0 149 0.0 6.0 0.02 0.02 0.02 68
20260903033459 0 57 0.0 4.0 0.02 0.02 0.02 68
20260903032936 0 135 1.0 8.0 0.02 0.02 0.02 69
20260903032412 0 200 0.0 8.0 0.02 0.02 0.02 69
20260903031851 0 133 1.0 7.0 0.01 0.02 0.02 68
20260903031329 0 141 0.0 7.0 0.01 0.01 0.01 67
20260903030804 0 149 2.0 7.0 0.01 0.01 0.01 68
20260903030241 0 184 2.0 7.0 0.01 0.01 0.01 68
20260903025717 0 131 0.0 7.0 0.01 0.01 0.01 70
20260903025155 0 334 2.0 9.0 0.00 0.00 0.00 67
20260903024631 0 214 2.0 9.0 0.00 0.00 0.00 69
20260903024108 0 127 1.0 9.0 0.00 0.00 0.00 64
20260903023545 0 154 3.0 6.0 0.00 0.00 0.00 52
20260903023022 0 228 1.0 6.0 0.00 0.00 0.00 68
20260903022459 0 71 1.0 6.0 0.00 0.00 0.00 67
20260903021937 0 44 3.0 6.0 0.00 0.00 0.00 65
20260903021413 0 193 0.0 6.0 0.00 0.62 0.00 62
20260903020850 0 39 2.0 6.0 0.00 0.62 0.00 63
20260903020328 0 112 1.0 6.0 0.00 0.62 0.00 63
20260903015804 0 198 1.0 8.0 0.00 0.62 0.00 61
20260903015241 0 106 3.0 8.0 0.00 0.62 0.00 60
20260903014718 0 187 1.0 8.0 0.00 0.62 0.00 60
20260903014155 0 135 1.0 7.0 0.00 0.62 0.00 62
20260903013632 0 61 2.0 7.0 0.00 0.62 0.00 64
20260903013110 0 219 1.0 7.0 0.00 0.62 0.00 65
20260903012547 0 142 1.0 6.0 0.00 0.62 0.00 65
20260903012023 0 225 1.0 6.0 0.00 0.62 0.00 64
20260903011500 0 176 0.0 6.0 0.00 0.62 0.00 61
20260903010937 0 15 1.0 6.0 0.00 0.62 0.00 63
20260903010414 0 175 1.0 6.0 0.00 0.62 0.00 60
20260903005851 0 162 0.0 6.0 0.00 0.62 0.00 62
20260903005329 0 53 0.0 5.0 0.00 0.62 0.00 65
20260903004805 0 149 2.0 6.0 0.00 0.62 0.00 64
20260903004242 0 119 2.0 6.0 0.00 0.62 0.00 51
20260903003719 0 54 3.0 6.0 0.00 0.62 0.00 50
20260903003156 0 145 0.0 4.0 0.00 0.62 0.00 52
20260903002634 0 138 1.0 5.0 0.00 0.62 0.00 65
20260903002110 0 145 0.0 5.0 0.00 0.62 0.00 62
20260903001547 0 102 0.0 5.0 0.00 0.62 0.00 63
20260903001024 0 56 0.0 4.0 0.00 0.62 0.00 63
20260903000501 0 148 0.0 4.0 0.00 0.62 0.00 63
20260902235938 0 175 2.0 4.0 0.00 0.62 0.00 62
20260902235415 0 68 0.0 3.0 0.00 0.62 0.00 58
20260902234852 0 93 0.0 3.0 0.00 0.62 0.00 56
20260902234330 0 158 1.0 5.0 0.00 0.62 0.00 56
20260902233806 0 158 0.0 5.0 0.00 0.62 0.62 55
20260902233243 0 145 0.0 2.0 0.00 0.62 0.62 53
20260902232720 0 70 0.0 2.0 0.00 0.62 0.62 51
20260902232157 0 44 0.0 3.0 0.00 0.62 0.62 54
20260902231634 0 145 0.0 3.0 0.00 0.62 0.62 53
20260902231111 0 64 0.0 3.0 0.00 0.62 0.62 58
20260902230548 0 95 0.0 2.0 0.00 0.62 0.62 60
20260902230025 0 0 0.0 4.0 0.00 0.62 0.62 64
20260902225502 0 343 0.0 4.0 0.00 0.62 0.62 68
20260902224939 0 54 0.0 4.0 0.00 0.62 0.62 69
20260902224416 0 337 0.0 4.0 0.00 0.62 0.62 70
20260902223853 0 161 0.0 4.0 0.00 0.62 0.62 70
20260902223330 0 197 0.0 2.0 0.00 0.62 0.62 69
20260902222808 0 47 0.0 2.0 0.00 0.62 0.62 68
20260902222244 0 39 0.0 2.0 0.00 0.62 0.62 70
20260902221721 0 131 0.0 2.0 0.00 0.62 0.62 71
20260902221158 0 0 0.0 6.0 0.01 0.62 0.62 70
20260902220635 0 0 0.0 6.0 0.01 0.62 0.62 69
20260902220112 0 175 0.0 6.0 0.01 0.62 0.62 70
20260902215549 0 161 0.0 2.0 0.01 0.62 0.62 68
20260902215026 0 166 0.0 5.0 0.02 0.62 0.62 70
20260902214503 0 168 0.0 5.0 0.02 0.62 0.62 71
20260902213940 0 235 0.0 5.0 0.02 0.62 0.62 70
20260902213417 0 203 1.0 5.0 0.02 0.62 0.62 69
20260902212854 0 196 1.0 5.0 0.02 0.62 0.62 69
20260902212331 0 184 2.0 3.0 0.02 0.62 0.62 70
20260902211808 0 179 0.0 3.0 0.02 0.62 0.62 69
20260902211245 0 315 0.0 6.0 0.02 0.61 0.62 71
20260902210722 0 190 0.0 6.0 0.02 0.61 0.61 72
20260902210159 0 155 0.0 6.0 0.03 0.61 0.61 71
20260902205636 0 147 2.0 2.0 0.03 0.61 0.61 72
20260902205113 0 226 0.0 8.0 0.03 0.60 0.60 71
20260902204550 0 148 0.0 8.0 0.03 0.60 0.60 69
20260902204027 0 189 1.0 8.0 0.04 0.60 0.60 70
20260902203504 0 182 0.0 2.0 0.04 0.60 0.60 73
20260902202941 0 147 0.0 7.0 0.05 0.60 0.60 69
20260902202417 0 182 0.0 7.0 0.06 0.60 0.60 70
20260902201855 0 63 2.0 6.0 0.06 0.60 0.60 71
20260902201332 0 208 1.0 15.0 0.06 0.60 0.60 70
20260902200808 0 226 2.0 15.0 0.06 0.59 0.59 68
20260902200245 0 197 2.0 14.0 0.06 0.59 0.59 64
20260902195722 0 133 1.0 12.0 0.06 0.58 0.58 62
20260902195159 0 15 4.0 17.0 0.09 0.58 0.58 62
20260902194636 0 169 4.0 17.0 0.09 0.57 0.57 58
20260902194113 0 198 3.0 17.0 0.09 0.56 0.57 62
20260902193551 0 172 5.0 14.0 0.09 0.56 0.56 62
20260902193027 0 198 6.0 14.0 0.11 0.55 0.55 61
20260902192505 0 95 6.0 14.0 0.11 0.55 0.55 61
20260902191943 0 170 3.0 12.0 0.13 0.54 0.54 63
20260902191418 0 0 3.0 16.0 0.13 0.54 0.54 66
20260902190855 0 71 4.0 16.0 0.15 0.54 0.54 65
20260902190333 0 162 4.0 12.0 0.17 0.53 0.53 61
20260902185809 0 25 0.0 12.0 0.17 0.52 0.53 70
20260902185246 0 193 2.0 12.0 0.16 0.51 0.51 72
20260902184723 0 28 3.0 7.0 0.16 0.49 0.49 68
20260902184200 0 51 0.0 5.0 0.17 0.47 0.48 65
20260902183637 0 0 0.0 5.0 0.17 0.47 0.47 65
20260902183114 0 0 0.0 5.0 0.15 0.46 0.46 64
20260902182551 0 187 0.0 15.0 0.15 0.44 0.45 69
20260902182028 0 0 0.0 15.0 0.14 0.43 0.43 68
20260902181506 0 170 0.0 15.0 0.14 0.41 0.41 66
20260902180945 0 0 0.0 5.0 0.12 0.39 0.39 65
20260902180419 0 347 0.0 5.0 0.12 0.38 0.38 67
20260902175856 0 0 0.0 0.0 0.09 0.36 0.36 63
20260902175335 0 0 0.0 0.0 0.07 0.35 0.35 65
20260902174810 0 0 0.0 5.0 0.07 0.33 0.33 64
20260902174247 0 309 0.0 5.0 0.08 0.32 0.32 61
20260902173725 0 117 0.0 10.0 0.08 0.30 0.31 63
20260902173201 0 296 0.0 10.0 0.09 0.30 0.30 68
20260902172638 0 60 0.0 10.0 0.09 0.29 0.29 68
20260902172116 0 140 0.0 4.0 0.10 0.28 0.28 64
20260902171553 0 138 0.0 4.0 0.10 0.28 0.28 69
20260902171029 0 103 0.0 3.0 0.10 0.27 0.27 66
20260902170507 0 121 0.0 7.0 0.10 0.26 0.27 66
20260902165943 0 19 0.0 7.0 0.11 0.26 0.26 66
20260902165420 0 64 0.0 7.0 0.11 0.26 0.26 67
20260902164857 0 128 0.0 4.0 0.11 0.25 0.25 66
20260902164335 0 134 0.0 3.0 0.09 0.25 0.25 67
20260902163811 0 329 0.0 3.0 0.09 0.24 0.24 65
20260902163248 0 282 0.0 2.0 0.20 0.22 0.22 67
20260902162725 0 0 0.0 2.0 0.20 0.20 0.20 66
20260902162202 0 211 0.0 2.0 0.17 0.19 0.19 67
20260902161639 0 190 0.0 2.0 0.17 0.18 0.18 67
20260902161116 0 0 0.0 0.0 0.16 0.17 0.17 68
20260902160553 0 0 0.0 0.0 0.16 0.16 0.16 67
20260902160030 0 344 0.0 0.0 0.15 0.16 0.16 68
20260902155507 0 0 0.0 6.0 0.15 0.15 0.15 65
20260902154944 0 324 0.0 6.0 0.14 0.14 0.14 63
20260902154421 0 210 0.0 6.0 0.14 0.14 0.14 65
20260902153900 0 0 0.0 1.0 0.13 0.14 0.14 64
20260902153335 0 0 0.0 0.0 0.00 0.13 0.13 63
20260902152814 0 0 0.0 0.0 0.00 0.13 0.13 60
20260902152249 0 0 0.0 0.0 0.12 0.12 0.12 60
20260902151726 0 0 0.0 0.0 0.12 0.12 0.12 57
20260902151203 0 0 0.0 0.0 0.12 0.12 0.12 58
20260902150640 0 0 0.0 0.0 0.12 0.12 0.12 63
20260902150117 0 0 0.0 0.0 0.10 0.11 0.11 66
20260902145555 0 0 0.0 0.0 0.10 0.10 0.10 67
20260902145032 0 0 0.0 3.0 0.08 0.10 0.10 68
20260902144508 0 0 0.0 3.0 0.08 0.08 0.08 69
20260902143945 0 0 0.0 3.0 0.06 0.07 0.07 70
20260902143422 0 198 0.0 5.0 0.06 0.06 0.06 67
20260902142859 0 166 0.0 5.0 0.04 0.05 0.05 64
20260902142338 0 44 0.0 0.0 0.00 0.04 0.04 65
20260902141250 0 131 2.0 7.0 0.00 0.03 0.03 50
20260902140727 0 347 0.0 4.0 0.00 0.03 0.03 50
20260902140204 0 191 0.0 4.0 0.00 0.03 0.03 50
20260902135642 0 154 0.0 4.0 0.00 0.03 0.03 52
20260902135118 0 354 0.0 8.0 0.00 0.03 0.03 54
20260902134555 0 128 0.0 8.0 0.00 0.03 0.03 54
20260902134032 0 141 0.0 8.0 0.00 0.03 0.03 54
20260902133509 0 183 0.0 9.0 0.00 0.03 0.03 52
20260902132946 0 151 0.0 9.0 0.01 0.03 0.03 53
20260902132423 0 56 4.0 9.0 0.01 0.03 0.03 56
20260902131900 0 330 1.0 7.0 0.03 0.03 0.03 54
20260902131337 0 183 1.0 3.0 0.03 0.03 0.03 57
20260902130814 0 51 0.0 6.0 0.03 0.03 0.03 59
20260902130251 0 218 0.0 6.0 0.03 0.03 0.03 57
20260902125728 0 172 0.0 10.0 0.03 0.03 0.03 59
20260902125205 0 8 0.0 10.0 0.03 0.03 0.03 60
20260902124642 0 176 1.0 10.0 0.03 0.03 0.03 60
20260902124119 0 226 1.0 8.0 0.03 0.03 0.03 57
20260902123556 0 117 0.0 10.0 0.03 0.03 0.03 58
20260902123033 0 161 1.0 10.0 0.02 0.03 0.03 58
20260902122509 0 212 1.0 10.0 0.02 0.02 0.02 61
20260902121423 0 135 2.0 5.0 0.00 0.02 0.02 63
20260902120900 0 21 0.0 4.0 0.00 0.02 0.02 67
20260902120338 0 127 0.0 4.0 0.00 0.02 0.02 65
20260902115814 0 200 0.0 9.0 0.00 0.02 0.02 62
20260902115251 0 193 0.0 9.0 0.00 0.02 0.02 66
20260902114729 0 0 1.0 11.0 0.00 0.02 0.02 66
20260902114207 0 0 0.0 11.0 0.00 0.02 0.02 58
20260902113642 0 74 0.0 11.0 0.00 0.02 0.02 60
20260902113119 0 344 0.0 4.0 0.00 0.02 0.02 62
20260902112556 0 357 0.0 7.0 0.00 0.02 0.02 58
20260902112033 0 56 0.0 7.0 0.00 0.02 0.02 59
20260902111510 0 145 1.0 7.0 0.00 0.02 0.02 62
20260902110949 0 172 0.0 16.0 0.00 0.02 0.02 64
20260902110425 0 0 0.0 16.0 0.00 0.02 0.02 63
20260902105901 0 151 0.0 5.0 0.00 0.02 0.02 61
20260902105338 0 0 0.0 4.0 0.00 0.02 0.02 64
20260902104815 0 147 0.0 6.0 0.00 0.02 0.02 62
20260902104252 0 217 0.0 6.0 0.00 0.02 0.02 62
20260902103729 0 128 0.0 6.0 0.00 0.02 0.02 62
20260902103206 0 0 0.0 3.0 0.00 0.02 0.02 64
20260902102644 0 0 0.0 3.0 0.00 0.02 0.02 64
20260902102120 0 0 0.0 3.0 0.01 0.02 0.02 64
20260902101557 0 357 0.0 4.0 0.01 0.02 0.02 64
20260902101034 0 0 0.0 4.0 0.01 0.02 0.02 65
20260902100511 0 149 0.0 4.0 0.01 0.02 0.02 66
20260902095948 0 0 0.0 6.0 0.01 0.02 0.02 66
20260902095425 0 61 0.0 6.0 0.01 0.02 0.02 67
20260902094902 0 191 0.0 5.0 0.01 0.02 0.02 65
20260902094339 0 77 1.0 9.0 0.01 0.02 0.02 65
20260902093816 0 200 0.0 9.0 0.01 0.02 0.02 66
20260902093253 0 99 0.0 18.0 0.01 0.02 0.02 66
20260902092730 0 158 1.0 18.0 0.01 0.02 0.02 65
20260902092207 0 169 0.0 18.0 0.00 0.02 0.02 67
20260902091644 0 81 5.0 8.0 0.00 0.02 0.02 70
20260902091121 0 126 2.0 8.0 0.00 0.01 0.01 63
20260902090558 0 138 0.0 9.0 0.00 0.01 0.01 63
20260902090035 0 256 1.0 9.0 0.00 0.01 0.01 64
20260902085606 0 1 2.0 9.0 0.00 0.01 0.01 63
20260902085512 0 1 2.0 9.0 0.00 0.01 0.01 63
20260902084949 0 179 2.0 11.0 0.00 0.01 0.01 63
20260902084426 0 141 1.0 11.0 0.00 0.01 0.01 64
20260902083903 0 345 2.0 11.0 0.00 0.01 0.01 63
20260902083340 0 182 6.0 11.0 0.00 0.01 0.01 60
20260902082817 0 186 0.0 11.0 0.00 0.01 0.01 64
20260902082254 0 173 3.0 8.0 0.00 0.01 0.01 61
20260902081731 0 145 0.0 8.0 0.00 0.01 0.01 63
20260902081208 0 15 1.0 8.0 0.00 0.01 0.01 61
20260902080645 0 179 1.0 10.0 0.00 0.01 0.01 60
20260902080122 0 46 0.0 10.0 0.00 0.01 0.01 60
20260902075559 0 172 2.0 10.0 0.00 0.01 0.01 61
20260902075036 0 280 0.0 7.0 0.00 0.01 0.01 63
20260902074513 0 126 0.0 13.0 0.00 0.01 0.01 62
20260902073950 0 128 0.0 13.0 0.00 0.01 0.01 62
20260902073427 0 176 5.0 13.0 0.00 0.01 0.01 62
20260902072904 0 26 1.0 11.0 0.00 0.01 0.01 62
20260902072341 0 191 0.0 11.0 0.00 0.01 0.01 62
20260902071818 0 127 1.0 6.0 0.00 0.01 0.01 61
20260902071255 0 113 1.0 11.0 0.01 0.01 0.01 60
20260902070732 0 114 1.0 11.0 0.01 0.01 0.01 58
20260902070209 0 183 4.0 11.0 0.01 0.01 0.01 58
20260902065646 0 134 0.0 9.0 0.01 0.01 0.01 56
20260902065125 0 156 3.0 9.0 0.01 0.01 0.01 56
20260902064600 0 165 0.0 9.0 0.01 0.01 0.01 55
20260902064037 0 159 0.0 9.0 0.01 0.01 0.01 57
20260902063515 0 50 0.0 7.0 0.01 0.01 0.01 57
20260902062951 0 145 0.0 7.0 0.01 0.01 0.01 55
20260902062428 0 208 1.0 4.0 0.01 0.01 0.01 53
20260902061905 0 42 0.0 7.0 0.01 0.01 0.01 56
20260902061342 0 156 0.0 7.0 0.00 0.01 0.01 57
20260902060819 0 151 0.0 8.0 0.00 0.01 0.01 58